Location: Arleux
(50.3632°N, 2.8721°E)
Time: 03:49:53
(UTC+00:00)

Okean 2 Rocket - Pass Details

Date: 15 December 2019
Orbit: 618 x 640 km, 82.5° (Epoch: 17 January)

Event Time Altitude Azimuth Distance (km) Brightness Sun altitude
Rises 06:39:38 0° 174° (S) 2,882 7.0 -9.3°
Reaches altitude 10° 06:41:54 10° 169° (S) 1,983 6.2 -9.0°
Maximum altitude 06:46:08 50° 94° (E) 796 4.1 -8.4°
Drops below altitude 10° 06:50:26 10° 19° (NNE) 2,009 5.6 -7.8°
Sets 06:52:43 0° 15° (NNE) 2,925 6.4 -7.4°
